Regional Weather Roundup
Issued by NWS Jackson, KY

Home | Current Version | Previous Version | Text Only | Print | Product List | Glossary Off
Versions: 1 2 3 4 5 6 7 8 9 10 11 12 13 14 15 16 17 18 19 20 21 22 23 24 25 26 27 28 29 30 31 32 33 34 35 36 37 38 39 40 41 42 43 44 45 46 47 48 49 50

000
ASUS43 KJKL 120910
RWRJKL

EAST KENTUCKY HOURLY WEATHER ROUNDUP
NATIONAL WEATHER SERVICE JACKSON KY
400 AM EST FRI FEB 12 2016

NOTE: "FAIR" INDICATES FEW OR NO CLOUDS BELOW 12,000 FEET WITH
NO SIGNIFICANT WEATHER AND/OR OBSTRUCTIONS TO VISIBILITY.

* THESE REPORTS ARE NOT UNDER NWS QUALITY CONTROL AND MAY NOT
  REPORT WEATHER SUCH AS PRECIPITATION AND FOG.

KYZ079-080-083-085-087-088-110-112-115-119-120-121000
...EASTERN KENTUCKY...

CITY           SKY/WX    TMP DP  RH WIND       PRES   REMARKS
JACKSON        CLOUDY    21   8  57 NE3       30.16F
LONDON         CLOUDY    24  12  60 N6        30.16F WCI  17
SOMERSET*      MOCLDY    25  14  63 NE5       30.20S WCI  19
MONTICELLO*    CLOUDY    27  17  66 NW6       30.17  WCI  20
WILLIAMSBURG*  CLOUDY    25  16  68 CALM      30.15F
MIDDLESBORO*   CLOUDY    27  21  77 CALM      30.16F
HARLAN APT*    CLOUDY    27  19  74 CALM      30.13F
BIG SANDY*     CLOUDY    19   9  64 E3        30.18F
MOREHEAD APT*  CLOUDY    19   7  58 E3        30.22F
$$

KYZ035-036-041-042-044-050-067-078-099-121000
...CENTRAL KENTUCKY...

CITY           SKY/WX    TMP DP  RH WIND       PRES   REMARKS
MT STERLING*   CLOUDY    23  12  63 E5        30.20F WCI  17
DANVILLE*      CLOUDY    25  18  74 CALM      30.19F
RICHMOND*      CLOUDY    25  16  68 CALM      30.19R
LEXINGTON      CLOUDY    24  13  62 SE3       30.19F
FRANKFORT      CLOUDY    24  13  62 E5        30.20F WCI  18
$$

KYZ091>093-OHZ055-061-077-WVZ005-015-034-035-042-121000
...SOUTHERN OHIO/WEST VIRGINIA...

CITY           SKY/WX    TMP DP  RH WIND       PRES   REMARKS
COVINGTON      CLOUDY    20   8  60 SE3       30.20F
COLUMBUS       CLOUDY     7   3  84 CALM      30.23F
DAYTON         CLOUDY    12   7  80 CALM      30.20F
WILMINGTON     CLOUDY     6   2  83 CALM      30.20F
HUNTINGTON     MOCLDY    16   5  62 NE5       30.22F WCI   9
CHARLESTON       N/A     11   7  84 NE3       30.22F
PINEVILLE*       N/A     13   8  79 MISG      30.20F
BECKLEY          N/A     10   2  69 SE3       30.10F
$$

VAZ002-007-008-TNZ017-027-036-066-071-121000
...SOUTHWEST VIRGINIA/EAST TENNESSEE...

CITY           SKY/WX    TMP DP  RH WIND       PRES   REMARKS
BRISTOL        CLOUDY    27  21  78 CALM      30.14F
KNOXVILLE      CLOUDY    31  20  63 CALM      30.15F
OAK RIDGE      CLOUDY    32  18  56 CALM      30.18F
CROSSVILLE     CLOUDY    30  20  66 SE5       30.10F WCI  25
NASHVILLE      CLOUDY    34  21  59 CALM      30.17S
$$

...KEY TO REMARKS...
VSB - VISIBILITY IN MILES
WCI - WIND CHILL INDEX
HX  - HEAT INDEX

$$



USA.gov is the U.S. government's official web portal to all federal, state and local government web resources and services.